User: anonymous   Login
Location: Newark
(15.4608°S, 41.1635°W)
Time: 00:55:05
(UTC+00:00)
Language:

Courier 1B - Orbit

View from above orbital plane
View from above orbital plane
View from above satellite
View from above satellite

Ground track
Ground track

The orbit data is extracted from the following two-line orbital elements,

1    58U 60013A   21211.61870221  .00000088  00000-0 -82527-6 0  9994
2    58  28.3261 183.8944 0165025 208.4837 150.6603 13.46327809994191
Epoch (UTC): 30 July 2021 14:50:55
Eccentricity: 0.0165025
inclination: 28.3261°
perigee height: 962 km
apogee height: 1209 km
right ascension of ascending node: 183.8944°
argument of perigee: 208.4837°
revolutions per day: 13.46327809
mean anomaly at epoch: 150.6603°
orbit number at epoch: 99419

The dashed part of the orbit path shows where the satellite is in the earth's shadow,  

DLR